(269653) = 1994 RR7 = 2008 SS14

Discovered at Kitt Peak on 1994-09-12 by Spacewatch.

Orbit

Orbit type: Main Belt

Note: WebGL enabled browser required.

epoch2023-09-13.0
epoch JD2460200.5
perihelion date2022-07-01.15536
perihelion JD2459761.65536
argument of perihelion (°)102.26859
ascending node (°)185.70873
inclination (°)5.31389
eccentricity0.1677825
perihelion distance (AU)1.9332054
Tisserand w.r.t. Jupiter3.6
ΔV w.r.t. Earth (km/sec)8.8
semimajor axis (AU)2.3229570
mean anomaly (°)122.16671
mean daily motion (°/day)0.27838260
aphelion distance (AU)2.713
period (years)3.54
P-vector [x]0.30822289
P-vector [y]-0.90485308
P-vector [z]-0.29366571
Q-vector [x]0.95126957
Q-vector [y]0.29016658
Q-vector [z]0.10435309
absolute magnitude17.77
phase slope0.15
uncertainty0
referenceMPEC 2024-A48
observations used240
oppositions14
arc length (days)10705
first opposition used1994
last opposition used2024
residual rms (arc-secs)0.69
perturbers coarse indicatorM-v
perturbers precise indicator003Ek
first observation date used1994-09-12.0
last observation date used2024-01-03.0
computer nameMPCLINUX
JD of orbit computation2456760.712858
perihelion JD uncertainty (days)7.9838E-05
argument of perihelion uncertainty (°)4.4472E-05
ascending node uncertainty (°)3.9245E-05
inclination uncertainty (°)6.1839E-06
eccentricity uncertainty 3.5965E-08
perihelion distance uncertainty (AU)8.7416E-08
Minimum Orbit Intersection Distances (in AU)
for orbit epoch: 2460200.5, reference: E2024-A48
Mercury1.48697
Venus1.21395
Earth0.92498
Mars0.5173
Jupiter2.45324
Saturn6.36519
Uranus15.8834
Neptune27.3316

Observations

245 total observations over interval: 1994 09 12.26001 – 2024 01 03.324323
These data are available for download (format description).

Date (UT) J2000 RA J2000 Dec Magn Location Ref
1994 09 12.26001 00 21 58.42 +03 46 52.1 20.6 V 691 – Steward Observatory, Kitt Peak-Spacewatch MPC 23925
1994 09 12.30359 00 21 56.26 +03 46 30.1   691 – Steward Observatory, Kitt Peak-Spacewatch MPC 23925
1994 09 14.33995 00 20 18.67 +03 29 01.4 20.6 V 691 – Steward Observatory, Kitt Peak-Spacewatch MPC 23925
1994 09 14.36133 00 20 17.58 +03 28 50.0   691 – Steward Observatory, Kitt Peak-Spacewatch MPC 23925
1994 09 14.38266 00 20 16.45 +03 28 38.5   691 – Steward Observatory, Kitt Peak-Spacewatch MPC 23925
1994 09 30.16919 00 06 47.01 +01 05 04.7   691 – Steward Observatory, Kitt Peak-Spacewatch MPS 260209
1994 09 30.19227 00 06 45.76 +01 04 52.7   691 – Steward Observatory, Kitt Peak-Spacewatch MPS 260209
1994 09 30.21537 00 06 44.57 +01 04 39.8 20.3 V 691 – Steward Observatory, Kitt Peak-Spacewatch MPS 260209
2001 09 23.24750 23 06 31.61 -03 15 59.5   704 – Lincoln Laboratory ETS, New Mexico MPS 407480
2001 09 23.26168 23 06 30.91 -03 16 06.8   704 – Lincoln Laboratory ETS, New Mexico MPS 407480
2001 09 23.27583 23 06 30.32 -03 16 13.9   704 – Lincoln Laboratory ETS, New Mexico MPS 407480
2001 09 23.29000 23 06 29.64 -03 16 21.7   704 – Lincoln Laboratory ETS, New Mexico MPS 407480
2001 09 23.30415 23 06 28.97 -03 16 29.9   704 – Lincoln Laboratory ETS, New Mexico MPS 407480
2004 06 17.18303 14 40 12.03 -07 43 57.2 20.5   644 – Palomar Mountain/NEAT MPS 260209
2004 06 17.20567 14 40 11.82 -07 43 57.7 20.2   644 – Palomar Mountain/NEAT MPS 260209
2004 06 17.22666 14 40 11.69 -07 43 58.0 20.1   644 – Palomar Mountain/NEAT MPS 260209
2005 10 29.32374 03 53 16.90 +14 08 42.6 20.9 V 691 – Steward Observatory, Kitt Peak-Spacewatch MPS 260209
2005 10 29.34107 03 53 15.95 +14 08 37.5 21.3 V 691 – Steward Observatory, Kitt Peak-Spacewatch MPS 260209
2005 10 29.35842 03 53 15.05 +14 08 31.7 21.0 V 691 – Steward Observatory, Kitt Peak-Spacewatch MPS 260209
2005 11 06.21130 03 45 55.44 +13 26 18.2 21.2 V 691 – Steward Observatory, Kitt Peak-Spacewatch MPS 260209
2005 11 06.22856 03 45 54.40 +13 26 12.7 21.3 V 691 – Steward Observatory, Kitt Peak-Spacewatch MPS 260209
2005 11 06.24937 03 45 53.14 +13 26 06.4 21.0 V 691 – Steward Observatory, Kitt Peak-Spacewatch MPS 260209
2008 09 19.19148 21 55 05.47 -08 21 24.0   691 – Steward Observatory, Kitt Peak-Spacewatch MPS 258089
2008 09 19.20722 21 55 05.11 -08 21 30.2   691 – Steward Observatory, Kitt Peak-Spacewatch MPS 258089
2008 09 19.22294 21 55 04.70 -08 21 36.2   691 – Steward Observatory, Kitt Peak-Spacewatch MPS 258089
2008 09 24.11580 21 53 42.19 -08 52 46.1 20.9 V 691 – Steward Observatory, Kitt Peak-Spacewatch MPS 258089
2008 09 24.13493 21 53 41.94 -08 52 53.0 20.6 V 691 – Steward Observatory, Kitt Peak-Spacewatch MPS 258089
2008 09 24.15405 21 53 41.64 -08 52 59.6 20.9 V 691 – Steward Observatory, Kitt Peak-Spacewatch MPS 258089
2011 03 01.48216 14 26 29.94 -12 59 37.2 21.1 V G96 – Mt. Lemmon Survey MPS 371923
2011 03 01.48742 14 26 30.04 -12 59 37.3 21.0 V G96 – Mt. Lemmon Survey MPS 371923
2011 03 01.49263 14 26 30.15 -12 59 37.2 21.4 V G96 – Mt. Lemmon Survey MPS 371923
2011 03 01.49789 14 26 30.26 -12 59 36.4 21.7 V G96 – Mt. Lemmon Survey MPS 371923
2011 03 13.42519 14 29 07.47 -12 33 39.8 21.0 V G96 – Mt. Lemmon Survey MPS 374769
2011 03 13.43228 14 29 07.47 -12 33 38.0 20.8 V G96 – Mt. Lemmon Survey MPS 374769
2011 03 13.43964 14 29 07.47 -12 33 36.5 21.1 V G96 – Mt. Lemmon Survey MPS 374769
2011 03 13.44679 14 29 07.47 -12 33 35.5 20.6 V G96 – Mt. Lemmon Survey MPS 374769
2011 03 26.36799 14 27 07.15 -11 36 11.3 20.9 V 691 – Steward Observatory, Kitt Peak-Spacewatch MPS 375459
2011 03 26.38576 14 27 06.72 -11 36 05.1 20.9 V 691 – Steward Observatory, Kitt Peak-Spacewatch MPS 375459
2011 03 26.40352 14 27 06.28 -11 35 59.3 20.5 V 691 – Steward Observatory, Kitt Peak-Spacewatch MPS 375459
2011 04 07.31930 14 20 52.30 -10 18 04.0   691 – Steward Observatory, Kitt Peak-Spacewatch MPS 377069
2011 04 07.33708 14 20 51.53 -10 17 56.0   691 – Steward Observatory, Kitt Peak-Spacewatch MPS 377069
2011 04 07.35487 14 20 50.83 -10 17 51.0   691 – Steward Observatory, Kitt Peak-Spacewatch MPS 377069
2011 04 23.47343 14 07 40.536 -08 09 13.44 20.0 r F51 – Pan-STARRS 1, Haleakala MPS 381108
2011 04 23.48503 14 07 39.873 -08 09 07.65 19.9 i F51 – Pan-STARRS 1, Haleakala MPS 381108
2011 04 23.49581 14 07 39.257 -08 09 02.31 19.9 i F51 – Pan-STARRS 1, Haleakala MPS 381108
2011 04 28.43752 14 03 09.76 -07 28 56.1 20.8 V 291 – LPL/Spacewatch II MPS 381108
2011 04 28.44285 14 03 09.47 -07 28 53.7 20.8 V 291 – LPL/Spacewatch II MPS 381108
2011 04 28.44814 14 03 09.18 -07 28 51.1 20.8 V 291 – LPL/Spacewatch II MPS 381108
2011 05 23.23503 13 44 56.97 -04 55 09.5 20.3 V G96 – Mt. Lemmon Survey MPS 383939
2011 05 23.24369 13 44 56.72 -04 55 07.5 20.1 V G96 – Mt. Lemmon Survey MPS 383939
2011 05 23.25235 13 44 56.47 -04 55 05.4 20.4 V G96 – Mt. Lemmon Survey MPS 383939
2011 05 23.26094 13 44 56.18 -04 55 03.6 20.4 V G96 – Mt. Lemmon Survey MPS 383939
2012 10 15.34545 03 18 47.20 +13 22 17.5 21.0 V 691 – Steward Observatory, Kitt Peak-Spacewatch MPS 437669
2012 10 15.36313 03 18 46.39 +13 22 11.5 21.1 V 691 – Steward Observatory, Kitt Peak-Spacewatch MPS 437669
2012 10 15.38082 03 18 45.56 +13 22 04.7 21.1 V 691 – Steward Observatory, Kitt Peak-Spacewatch MPS 437669
2012 10 18.394891 03 16 26.445 +13 04 02.03 21.0 w F51 – Pan-STARRS 1, Haleakala MPS 437669
2012 10 18.425197 03 16 24.907 +13 03 51.12 21.0 w F51 – Pan-STARRS 1, Haleakala MPS 437669
2012 10 18.440460 03 16 24.144 +13 03 45.58 20.9 w F51 – Pan-STARRS 1, Haleakala MPS 437669
2012 10 23.31741 03 12 13.81 +12 33 25.7 20.9 V 691 – Steward Observatory, Kitt Peak-Spacewatch MPS 439323
2012 10 23.33509 03 12 12.76 +12 33 18.8 20.8 V 691 – Steward Observatory, Kitt Peak-Spacewatch MPS 439323
2012 10 23.35277 03 12 11.83 +12 33 12.2 20.8 V 691 – Steward Observatory, Kitt Peak-Spacewatch MPS 439323
2012 11 04.38987 03 00 29.23 +11 16 34.2 20.2 V G96 – Mt. Lemmon Survey MPS 441429
2012 11 04.39696 03 00 28.76 +11 16 31.5 19.8 V G96 – Mt. Lemmon Survey MPS 441429
2012 11 04.40402 03 00 28.36 +11 16 29.3 20.0 V G96 – Mt. Lemmon Survey MPS 441429
2012 11 04.41107 03 00 27.93 +11 16 26.2 20.6 V G96 – Mt. Lemmon Survey MPS 441429
2012 11 12.28661 02 52 31.22 +10 29 07.9 20.4 V G96 – Mt. Lemmon Survey MPS 443237
2012 11 12.29233 02 52 30.86 +10 29 05.6 20.6 V G96 – Mt. Lemmon Survey MPS 443237
2012 11 12.29813 02 52 30.54 +10 29 03.8 20.7 V G96 – Mt. Lemmon Survey MPS 443237
2012 11 12.30407 02 52 30.18 +10 29 01.6 20.6 V G96 – Mt. Lemmon Survey MPS 443237
2012 11 12.30995 02 52 29.78 +10 28 59.8 20.4 V G96 – Mt. Lemmon Survey MPS 443237
2012 11 12.35358 02 52 27.12 +10 28 44.6 20.3 V G96 – Mt. Lemmon Survey MPS 443237
2012 11 12.35665 02 52 26.90 +10 28 43.7 20.4 V G96 – Mt. Lemmon Survey MPS 443237
2012 11 12.35973 02 52 26.72 +10 28 42.7 20.2 V G96 – Mt. Lemmon Survey MPS 443237
2012 11 12.36281 02 52 26.54 +10 28 41.7 20.4 V G96 – Mt. Lemmon Survey MPS 443237
2012 12 07.23072 02 33 08.198 +08 50 24.14 21.2 w F51 – Pan-STARRS 1, Haleakala MPS 447596
2012 12 07.24658 02 33 07.704 +08 50 22.44 21.3 w F51 – Pan-STARRS 1, Haleakala MPS 447596
2012 12 07.26161 02 33 07.235 +08 50 20.70 21.2 w F51 – Pan-STARRS 1, Haleakala MPS 447596
2012 12 07.27669 02 33 06.766 +08 50 18.86 21.3 w F51 – Pan-STARRS 1, Haleakala MPS 447596
2014 02 28.30464 09 21 52.714 +09 54 30.59 21.5 w F51 – Pan-STARRS 1, Haleakala MPS 505194
2014 02 28.31763 09 21 51.994 +09 54 35.89 21.8 w F51 – Pan-STARRS 1, Haleakala MPS 505194
2014 02 28.33068 09 21 51.317 +09 54 40.61 21.8 w F51 – Pan-STARRS 1, Haleakala MPS 505194
2014 02 28.34382 09 21 50.597 +09 54 45.74 22.0 w F51 – Pan-STARRS 1, Haleakala MPS 505194
2014 03 20.25754 09 09 05.580 +11 48 11.23 21.9 w F51 – Pan-STARRS 1, Haleakala MPS 508298
2014 03 20.26942 09 09 05.273 +11 48 14.37 22.1 w F51 – Pan-STARRS 1, Haleakala MPS 508298
2014 03 20.28123 09 09 05.003 +11 48 17.99 21.8 w F51 – Pan-STARRS 1, Haleakala MPS 508298
2015 06 19.41304 21 17 05.39 -06 50 45.5   G96 – Mt. Lemmon Survey MPS 612400
2015 06 19.41814 21 17 05.43 -06 50 43.2 20.8 V G96 – Mt. Lemmon Survey MPS 612400
